Time,TemperatureF,DewpointF,PressureIn,WindDirection,WindDirectionDegrees,WindSpeedMPH,WindSpeedGustMPH,Humidity,HourlyPrecipIn,Conditions,Clouds,dailyrainin,SoftwareType,DateUTC
2013-03-04 00:09:00,4.3,-1.5,30.08,North,0,0.0,0.0,76,0.00,,,0.00,WUHU216HW,2013-03-04 06:09:00,
2013-03-04 00:19:00,3.8,-1.9,30.09,North,0,0.0,0.0,76,0.00,,,0.00,WUHU216HW,2013-03-04 06:19:00,
2013-03-04 00:29:00,4.7,0.0,30.09,North,0,0.0,0.0,80,0.00,,,0.00,WUHU216HW,2013-03-04 06:29:00,
2013-03-04 00:39:00,4.7,0.0,30.09,North,0,0.2,0.2,80,0.00,,,0.00,WUHU216HW,2013-03-04 06:39:00,
2013-03-04 00:49:00,4.1,-0.9,30.08,NE,46,1.9,2.8,79,0.00,,,0.00,WUHU216HW,2013-03-04 06:49:00,
2013-03-04 00:59:00,4.3,-0.7,30.09,ENE,63,1.1,2.2,79,0.00,,,0.00,WUHU216HW,2013-03-04 06:59:00,
2013-03-04 01:09:00,4.0,-1.0,30.09,ENE,61,1.0,1.2,79,0.00,,,0.00,WUHU216HW,2013-03-04 07:09:00,
2013-03-04 01:19:00,4.0,-1.0,30.10,ENE,61,1.3,2.0,79,0.00,,,0.00,WUHU216HW,2013-03-04 07:19:00,
2013-03-04 01:29:00,4.1,-0.6,30.10,ENE,68,1.3,1.4,80,0.00,,,0.00,WUHU216HW,2013-03-04 07:29:00,
2013-03-04 01:39:00,4.5,-0.2,30.10,ENE,68,1.2,2.2,80,0.00,,,0.00,WUHU216HW,2013-03-04 07:39:00,
2013-03-04 01:49:00,4.7,0.0,30.10,ENE,57,1.6,2.8,80,0.00,,,0.00,WUHU216HW,2013-03-04 07:49:00,
2013-03-04 01:59:00,4.7,0.0,30.10,NE,52,0.3,0.4,80,0.00,,,0.00,WUHU216HW,2013-03-04 07:59:00,
2013-03-04 02:09:00,4.7,0.0,30.10,North,0,0.0,0.0,80,0.00,,,0.00,WUHU216HW,2013-03-04 08:09:00,
2013-03-04 02:19:00,4.3,-0.7,30.10,North,0,0.0,0.0,79,0.00,,,0.00,WUHU216HW,2013-03-04 08:19:00,
2013-03-04 02:29:00,4.9,-0.1,30.10,North,0,0.0,0.0,79,0.00,,,0.00,WUHU216HW,2013-03-04 08:29:00,
2013-03-04 02:39:00,5.6,1.1,30.10,NE,35,0.5,0.8,81,0.00,,,0.00,WUHU216HW,2013-03-04 08:39:00,
2013-03-04 02:49:00,4.7,-0.3,30.09,North,0,0.0,0.0,79,0.00,,,0.00,WUHU216HW,2013-03-04 08:49:00,
2013-03-04 02:59:00,4.5,-0.2,30.10,NE,54,0.6,1.0,80,0.00,,,0.00,WUHU216HW,2013-03-04 08:59:00,
2013-03-04 03:09:00,4.7,0.0,30.10,ENE,68,0.4,0.4,80,0.00,,,0.00,WUHU216HW,2013-03-04 09:09:00,
2013-03-04 03:19:00,4.7,-0.3,30.10,ENE,68,0.4,0.4,79,0.00,,,0.00,WUHU216HW,2013-03-04 09:19:00,
2013-03-04 03:29:00,5.2,0.5,30.10,NE,40,0.5,0.8,80,0.00,,,0.00,WUHU216HW,2013-03-04 09:29:00,
2013-03-04 03:39:00,5.9,1.4,30.10,NNE,23,0.2,0.2,81,0.00,,,0.00,WUHU216HW,2013-03-04 09:39:00,
2013-03-04 03:49:00,5.9,1.4,30.11,North,0,0.7,1.2,81,0.00,,,0.00,WUHU216HW,2013-03-04 09:49:00,
2013-03-04 03:59:00,5.6,0.9,30.11,North,0,0.0,0.0,80,0.00,,,0.00,WUHU216HW,2013-03-04 09:59:00,
2013-03-04 04:10:00,5.6,0.9,30.11,North,0,0.0,0.0,80,0.00,,,0.00,WUHU216HW,2013-03-04 10:10:00,
2013-03-04 04:20:00,5.6,1.1,30.11,NNE,23,0.6,1.0,81,0.00,,,0.00,WUHU216HW,2013-03-04 10:20:00,
2013-03-04 04:30:00,5.4,0.7,30.11,NE,38,0.7,1.2,80,0.00,,,0.00,WUHU216HW,2013-03-04 10:30:00,
2013-03-04 04:40:00,5.4,0.7,30.11,NE,45,0.7,1.2,80,0.00,,,0.00,WUHU216HW,2013-03-04 10:40:00,
2013-03-04 04:50:00,5.6,0.9,30.11,NE,45,0.6,1.2,80,0.00,,,0.00,WUHU216HW,2013-03-04 10:50:00,
2013-03-04 05:00:00,5.8,1.1,30.11,NE,48,1.2,1.4,80,0.00,,,0.00,WUHU216HW,2013-03-04 11:00:00,
2013-03-04 05:10:00,5.8,1.1,30.11,NE,41,0.9,1.2,80,0.00,,,0.00,WUHU216HW,2013-03-04 11:10:00,
2013-03-04 05:20:00,5.9,1.2,30.11,NE,40,0.7,1.4,80,0.00,,,0.00,WUHU216HW,2013-03-04 11:20:00,
2013-03-04 05:30:00,6.1,1.4,30.11,NE,39,1.0,1.2,80,0.00,,,0.00,WUHU216HW,2013-03-04 11:30:00,
2013-03-04 05:40:00,6.3,1.6,30.11,NE,34,1.2,2.0,80,0.00,,,0.00,WUHU216HW,2013-03-04 11:40:00,
2013-03-04 05:50:00,6.8,2.3,30.11,NE,50,2.2,3.4,81,0.00,,,0.00,WUHU216HW,2013-03-04 11:50:00,
2013-03-04 06:00:00,7.2,2.7,30.11,ENE,58,2.4,3.0,81,0.00,,,0.00,WUHU216HW,2013-03-04 12:00:00,
2013-03-04 06:10:00,8.3,3.8,30.11,ENE,66,2.5,3.0,81,0.00,,,0.00,WUHU216HW,2013-03-04 12:10:00,
2013-03-04 06:20:00,9.2,4.6,30.11,ENE,72,2.9,3.7,81,0.00,,,0.00,WUHU216HW,2013-03-04 12:20:00,
2013-03-04 06:30:00,9.9,5.1,30.10,ENE,72,3.3,4.4,80,0.00,,,0.00,WUHU216HW,2013-03-04 12:30:00,
2013-03-04 06:40:00,11.0,6.4,30.10,ENE,72,2.7,3.2,81,0.00,,,0.00,WUHU216HW,2013-03-04 12:40:00,
2013-03-04 06:50:00,12.1,7.4,30.10,ENE,69,3.1,3.7,81,0.00,,,0.00,WUHU216HW,2013-03-04 12:50:00,
2013-03-04 07:00:00,13.2,8.3,30.10,ENE,66,2.5,4.2,80,0.00,,,0.00,WUHU216HW,2013-03-04 13:00:00,
2013-03-04 07:10:00,14.3,9.1,30.10,ENE,64,2.6,4.2,79,0.00,,,0.00,WUHU216HW,2013-03-04 13:10:00,
2013-03-04 07:20:00,15.0,9.8,30.10,ENE,74,2.3,3.0,79,0.00,,,0.00,WUHU216HW,2013-03-04 13:20:00,
2013-03-04 07:30:00,16.1,10.8,30.10,ENE,76,1.8,2.8,79,0.00,,,0.00,WUHU216HW,2013-03-04 13:30:00,
2013-03-04 07:40:00,17.6,12.1,30.10,East,87,1.5,2.2,78,0.00,,,0.00,WUHU216HW,2013-03-04 13:40:00,
2013-03-04 07:50:00,19.1,12.6,30.10,ENE,76,1.9,3.4,75,0.00,,,0.00,WUHU216HW,2013-03-04 13:50:00,
2013-03-04 08:00:00,20.0,12.9,30.11,ENE,60,2.9,4.4,73,0.00,,,0.00,WUHU216HW,2013-03-04 14:00:00,
2013-03-04 08:10:00,20.5,12.7,30.10,NE,56,3.3,5.2,71,0.00,,,0.00,WUHU216HW,2013-03-04 14:10:00,
2013-03-04 08:20:00,20.9,12.5,30.10,ENE,65,5.1,7.6,69,0.00,,,0.00,WUHU216HW,2013-03-04 14:20:00,
2013-03-04 08:30:00,21.7,13.0,30.10,ENE,57,5.6,8.4,68,0.00,,,0.00,WUHU216HW,2013-03-04 14:30:00,
2013-03-04 08:41:00,22.6,14.1,30.10,NE,54,4.9,6.9,69,0.00,,,0.00,WUHU216HW,2013-03-04 14:41:00,
2013-03-04 08:51:00,24.4,15.9,30.10,ENE,63,3.9,5.2,69,0.00,,,0.00,WUHU216HW,2013-03-04 14:51:00,
2013-03-04 09:01:00,25.6,16.0,30.10,ENE,58,3.9,5.6,66,0.00,,,0.00,WUHU216HW,2013-03-04 15:01:00,
2013-03-04 09:11:00,26.1,16.5,30.10,ENE,61,5.2,6.9,66,0.00,,,0.00,WUHU216HW,2013-03-04 15:11:00,
2013-03-04 09:21:00,27.0,17.0,30.10,ENE,69,5.5,7.9,65,0.00,,,0.00,WUHU216HW,2013-03-04 15:21:00,
2013-03-04 09:31:00,27.5,17.8,30.10,ENE,66,7.9,10.8,66,0.00,,,0.00,WUHU216HW,2013-03-04 15:31:00,
2013-03-04 09:41:00,29.1,19.4,30.09,ENE,65,8.5,13.5,66,0.00,,,0.00,WUHU216HW,2013-03-04 15:41:00,
2013-03-04 09:51:00,30.0,19.5,30.09,ENE,76,7.2,10.1,64,0.00,,,0.00,WUHU216HW,2013-03-04 15:51:00,
2013-03-04 10:01:00,30.7,19.8,30.09,ENE,67,8.0,13.3,63,0.00,,,0.00,WUHU216HW,2013-03-04 16:01:00,
2013-03-04 10:11:00,30.9,19.6,30.09,East,89,9.1,12.3,62,0.00,,,0.00,WUHU216HW,2013-03-04 16:11:00,
2013-03-04 10:21:00,30.8,19.6,30.09,ENE,59,8.5,10.1,62,0.00,,,0.00,WUHU216HW,2013-03-04 16:21:00,
2013-03-04 10:32:00,30.6,19.7,30.09,East,96,10.1,13.3,63,0.00,,,0.00,WUHU216HW,2013-03-04 16:32:00,
2013-03-04 10:42:00,30.5,19.6,30.09,ENE,68,10.3,14.7,63,0.00,,,0.00,WUHU216HW,2013-03-04 16:42:00,
2013-03-04 10:52:00,31.4,20.9,30.09,ENE,63,9.0,12.3,64,0.00,,,0.00,WUHU216HW,2013-03-04 16:52:00,
2013-03-04 11:02:00,31.9,21.0,30.09,East,82,7.9,13.1,63,0.00,,,0.00,WUHU216HW,2013-03-04 17:02:00,
2013-03-04 11:12:00,32.1,21.5,30.08,NE,56,9.2,17.3,64,0.00,,,0.00,WUHU216HW,2013-03-04 17:12:00,
2013-03-04 11:22:00,31.9,20.9,30.08,ENE,71,8.8,14.7,63,0.00,,,0.00,WUHU216HW,2013-03-04 17:22:00,
2013-03-04 11:32:00,32.8,21.8,30.07,East,79,9.2,15.7,63,0.00,,,0.00,WUHU216HW,2013-03-04 17:32:00,
2013-03-04 11:42:00,33.2,21.8,30.08,ENE,72,9.2,12.5,62,0.00,,,0.00,WUHU216HW,2013-03-04 17:42:00,
2013-03-04 11:52:00,33.5,22.1,30.08,ENE,64,7.8,11.3,62,0.00,,,0.00,WUHU216HW,2013-03-04 17:52:00,
2013-03-04 12:02:00,32.4,21.4,30.07,East,86,9.9,15.0,63,0.00,,,0.00,WUHU216HW,2013-03-04 18:02:00,
2013-03-04 12:12:00,35.7,24.6,30.07,ESE,117,3.2,6.9,63,0.00,,,0.00,WUHU216HW,2013-03-04 18:12:00,
2013-03-04 12:22:00,36.2,23.9,30.07,ESE,108,4.7,9.4,60,0.00,,,0.00,WUHU216HW,2013-03-04 18:22:00,
2013-03-04 12:33:00,34.2,22.8,30.07,ESE,116,5.6,10.1,62,0.00,,,0.00,WUHU216HW,2013-03-04 18:33:00,
2013-03-04 12:43:00,33.7,23.0,30.06,ENE,66,5.8,11.3,64,0.00,,,0.00,WUHU216HW,2013-03-04 18:43:00,
2013-03-04 12:53:00,33.0,22.8,30.06,ENE,78,7.2,13.5,65,0.00,,,0.00,WUHU216HW,2013-03-04 18:53:00,
2013-03-04 13:03:00,33.2,23.0,30.06,ENE,72,7.2,11.1,65,0.00,,,0.00,WUHU216HW,2013-03-04 19:03:00,
2013-03-04 13:13:00,33.7,22.3,30.06,East,91,7.5,14.1,62,0.00,,,0.00,WUHU216HW,2013-03-04 19:13:00,
2013-03-04 13:23:00,33.8,22.3,30.06,East,80,6.8,12.5,62,0.00,,,0.00,WUHU216HW,2013-03-04 19:23:00,
2013-03-04 13:33:00,33.4,23.1,30.05,East,83,7.0,13.8,65,0.00,,,0.00,WUHU216HW,2013-03-04 19:33:00,
2013-03-04 13:43:00,31.6,22.8,30.05,ENE,73,12.0,17.3,69,0.00,,,0.00,WUHU216HW,2013-03-04 19:43:00,
2013-03-04 13:53:00,31.6,23.1,30.05,East,81,7.1,8.6,70,0.00,,,0.00,WUHU216HW,2013-03-04 19:53:00,
2013-03-04 14:03:00,31.5,23.0,30.05,East,96,8.5,11.8,70,0.00,,,0.00,WUHU216HW,2013-03-04 20:03:00,
2013-03-04 14:13:00,30.9,22.8,30.05,ENE,75,9.7,16.5,71,0.00,,,0.00,WUHU216HW,2013-03-04 20:13:00,
2013-03-04 14:23:00,31.6,23.5,30.05,East,93,4.9,7.6,71,0.00,,,0.00,WUHU216HW,2013-03-04 20:23:00,
2013-03-04 14:33:00,31.2,23.0,30.05,ENE,76,8.4,10.6,71,0.00,,,0.00,WUHU216HW,2013-03-04 20:33:00,
2013-03-04 14:43:00,30.7,22.9,30.05,East,86,9.3,14.7,72,0.00,,,0.00,WUHU216HW,2013-03-04 20:43:00,
2013-03-04 14:53:00,30.8,23.0,30.05,East,99,5.9,9.1,72,0.00,,,0.00,WUHU216HW,2013-03-04 20:53:00,
2013-03-04 15:03:00,30.3,22.2,30.05,East,79,8.9,13.3,71,0.00,,,0.00,WUHU216HW,2013-03-04 21:03:00,
2013-03-04 15:13:00,29.6,21.9,30.05,ENE,59,9.7,14.3,72,0.00,,,0.00,WUHU216HW,2013-03-04 21:13:00,
2013-03-04 15:23:00,29.9,21.8,30.04,ENE,65,9.3,10.8,71,0.00,,,0.00,WUHU216HW,2013-03-04 21:23:00,
2013-03-04 15:33:00,29.5,21.8,30.04,ENE,73,10.9,15.9,72,0.00,,,0.00,WUHU216HW,2013-03-04 21:33:00,
2013-03-04 15:43:00,29.7,22.0,30.05,ENE,68,8.3,17.3,72,0.00,,,0.00,WUHU216HW,2013-03-04 21:43:00,
2013-03-04 15:53:00,29.7,21.7,30.05,East,88,7.5,11.3,71,0.00,,,0.00,WUHU216HW,2013-03-04 21:53:00,
2013-03-04 16:03:00,29.4,21.6,30.04,East,92,8.8,12.8,72,0.00,,,0.00,WUHU216HW,2013-03-04 22:03:00,
2013-03-04 16:13:00,28.9,21.5,30.04,ENE,75,11.0,15.3,73,0.00,,,0.00,WUHU216HW,2013-03-04 22:13:00,
2013-03-04 16:23:00,28.9,21.5,30.04,ENE,70,8.4,11.6,73,0.00,,,0.00,WUHU216HW,2013-03-04 22:23:00,
2013-03-04 16:33:00,28.9,21.5,30.04,East,79,9.9,15.7,73,0.00,,,0.00,WUHU216HW,2013-03-04 22:33:00,
2013-03-04 16:43:00,28.6,21.2,30.04,East,79,11.1,17.3,73,0.00,,,0.00,WUHU216HW,2013-03-04 22:43:00,
2013-03-04 16:53:00,28.3,21.2,30.04,ENE,73,8.1,18.9,74,0.00,,,0.00,WUHU216HW,2013-03-04 22:53:00,
2013-03-04 17:03:00,28.1,21.0,30.04,ENE,69,8.5,13.3,74,0.00,,,0.00,WUHU216HW,2013-03-04 23:03:00,
2013-03-04 17:13:00,27.7,20.7,30.04,ENE,68,8.3,10.8,74,0.00,,,0.00,WUHU216HW,2013-03-04 23:13:00,
2013-03-04 17:23:00,27.4,20.7,30.04,ENE,71,8.7,12.5,75,0.00,,,0.00,WUHU216HW,2013-03-04 23:23:00,
2013-03-04 17:34:00,27.0,20.3,30.04,ENE,64,11.8,15.7,75,0.00,,,0.00,WUHU216HW,2013-03-04 23:34:00,
2013-03-04 17:44:00,26.6,20.2,30.03,ENE,70,11.1,14.7,76,0.00,,,0.00,WUHU216HW,2013-03-04 23:44:00,
2013-03-04 17:54:00,26.5,20.4,30.04,ENE,62,11.1,15.7,77,0.00,,,0.00,WUHU216HW,2013-03-04 23:54:00,
2013-03-04 18:04:00,26.3,20.2,30.04,ENE,66,10.3,14.1,77,0.00,,,0.00,WUHU216HW,2013-03-05 00:04:00,
2013-03-04 18:14:00,26.3,20.5,30.04,ENE,67,9.2,12.8,78,0.00,,,0.00,WUHU216HW,2013-03-05 00:14:00,
2013-03-04 18:24:00,26.3,20.5,30.04,ENE,66,7.5,10.6,78,0.00,,,0.00,WUHU216HW,2013-03-05 00:24:00,
2013-03-04 18:34:00,26.3,20.5,30.04,ENE,57,8.3,10.3,78,0.00,,,0.00,WUHU216HW,2013-03-05 00:34:00,
2013-03-04 18:44:00,26.3,20.8,30.05,East,81,9.5,13.8,79,0.00,,,0.00,WUHU216HW,2013-03-05 00:44:00,
2013-03-04 18:54:00,26.3,20.8,30.05,ENE,57,8.7,13.8,79,0.00,,,0.00,WUHU216HW,2013-03-05 00:54:00,
2013-03-04 19:04:00,26.3,20.8,30.04,ENE,61,8.6,11.3,79,0.00,,,0.00,WUHU216HW,2013-03-05 01:04:00,
2013-03-04 19:14:00,26.3,21.1,30.05,NE,54,8.5,12.1,80,0.00,,,0.00,WUHU216HW,2013-03-05 01:14:00,
2013-03-04 19:24:00,26.3,20.8,30.05,ENE,60,8.5,13.3,79,0.00,,,0.00,WUHU216HW,2013-03-05 01:24:00,
2013-03-04 19:34:00,26.3,21.1,30.05,ENE,75,8.7,11.1,80,0.00,,,0.00,WUHU216HW,2013-03-05 01:34:00,
2013-03-04 19:44:00,26.5,21.3,30.05,ENE,75,7.7,10.8,80,0.00,,,0.00,WUHU216HW,2013-03-05 01:44:00,
2013-03-04 19:54:00,26.5,21.3,30.05,ENE,57,7.1,10.3,80,0.00,,,0.00,WUHU216HW,2013-03-05 01:54:00,
2013-03-04 20:04:00,26.5,21.6,30.05,ENE,73,6.3,9.8,81,0.00,,,0.00,WUHU216HW,2013-03-05 02:04:00,
2013-03-04 20:14:00,26.6,21.7,30.05,ENE,73,7.2,9.6,81,0.00,,,0.00,WUHU216HW,2013-03-05 02:14:00,
2013-03-04 20:24:00,26.8,21.9,30.05,ENE,60,7.4,10.8,81,0.00,,,0.00,WUHU216HW,2013-03-05 02:24:00,
2013-03-04 20:34:00,26.8,21.9,30.05,NE,52,8.3,9.8,81,0.00,,,0.00,WUHU216HW,2013-03-05 02:34:00,
2013-03-04 20:44:00,26.8,21.9,30.05,NE,54,6.6,11.1,81,0.00,,,0.00,WUHU216HW,2013-03-05 02:44:00,
2013-03-04 20:54:00,26.8,21.9,30.05,NE,44,8.9,12.3,81,0.00,,,0.00,WUHU216HW,2013-03-05 02:54:00,
2013-03-04 21:04:00,26.8,21.9,30.05,NE,56,8.7,10.8,81,0.00,,,0.00,WUHU216HW,2013-03-05 03:04:00,
2013-03-04 21:15:00,26.8,22.1,30.05,NE,52,6.6,8.4,82,0.00,,,0.00,WUHU216HW,2013-03-05 03:15:00,
2013-03-04 21:25:00,27.0,22.6,30.05,NE,50,7.4,11.1,83,0.00,,,0.00,WUHU216HW,2013-03-05 03:25:00,
2013-03-04 21:35:00,27.0,22.6,30.05,ENE,61,8.5,10.1,83,0.00,,,0.00,WUHU216HW,2013-03-05 03:35:00,
2013-03-04 21:45:00,27.0,22.3,30.06,ENE,57,6.5,8.4,82,0.00,,,0.00,WUHU216HW,2013-03-05 03:45:00,
2013-03-04 21:55:00,27.0,22.3,30.06,ENE,64,5.6,8.4,82,0.00,,,0.00,WUHU216HW,2013-03-05 03:55:00,
2013-03-04 22:05:00,27.0,22.3,30.06,NE,52,5.4,7.4,82,0.00,,,0.00,WUHU216HW,2013-03-05 04:05:00,
2013-03-04 22:15:00,27.2,22.5,30.06,ENE,65,5.0,6.4,82,0.00,,,0.00,WUHU216HW,2013-03-05 04:15:00,
2013-03-04 22:25:00,27.2,22.5,30.05,NE,52,5.2,8.1,82,0.00,,,0.00,WUHU216HW,2013-03-05 04:25:00,
2013-03-04 22:35:00,27.2,22.8,30.05,ENE,65,6.2,8.4,83,0.00,,,0.00,WUHU216HW,2013-03-05 04:35:00,
2013-03-04 22:45:00,27.2,22.5,30.05,NE,43,5.4,7.6,82,0.00,,,0.00,WUHU216HW,2013-03-05 04:45:00,
2013-03-04 22:55:00,27.4,23.0,30.04,ENE,60,7.9,11.6,83,0.00,,,0.00,WUHU216HW,2013-03-05 04:55:00,
2013-03-04 23:05:00,27.4,23.0,30.04,ENE,57,7.0,10.1,83,0.00,,,0.00,WUHU216HW,2013-03-05 05:05:00,
2013-03-04 23:15:00,27.5,23.1,30.04,ENE,73,6.1,7.6,83,0.00,,,0.00,WUHU216HW,2013-03-05 05:15:00,
2013-03-04 23:25:00,27.7,23.3,30.04,ENE,71,5.6,6.9,83,0.00,,,0.00,WUHU216HW,2013-03-05 05:25:00,
2013-03-04 23:35:00,27.7,23.0,30.04,NE,55,5.8,8.4,82,0.00,,,0.00,WUHU216HW,2013-03-05 05:35:00,
2013-03-04 23:45:00,27.9,23.2,30.04,ENE,70,5.3,7.2,82,0.00,,,0.00,WUHU216HW,2013-03-05 05:45:00,
2013-03-04 23:55:00,27.9,23.2,30.04,NE,54,5.1,7.4,82,0.00,,,0.00,WUHU216HW,2013-03-05 05:55:00,